Regional Weather Roundup
Issued by NWS

Home | Current Version | Previous Version | Text Only | Print | Product List | Glossary Off
Versions: 1 2 3 4 5 6 7 8 9 10 11 12 13 14 15 16 17 18 19 20 21 22 23 24 25 26 27 28 29 30 31 32 33 34 35 36 37 38 39 40 41 42 43 44 45 46 47 48 49 50

000
ASUS43 KMKX 011200
RWRWI

WISCONSIN REGIONAL WEATHER ROUNDUP
NATIONAL WEATHER SERVICE MILWAUKEE/SULLIVAN WI
700 AM CDT TUE SEP 01 2015

NOTE: "FAIR" INDICATES FEW OR NO CLOUDS BELOW 12,000 FEET WITH NO
SIGNIFICANT WEATHER AND/OR OBSTRUCTIONS TO VISIBILITY.

WIZ001-002-006>008-014>016-023>028-011300-
NORTHWEST WISCONSIN

CITY           SKY/WX    TMP DP  RH WIND       PRES   REMARKS
SUPERIOR ARPT  MOCLDY    70  69  97 CALM      29.88S FOG
ASHLAND        CLOUDY    72  71  97 SW5       29.91S FOG
6HR MIN TEMP:  70; 6HR MAX TEMP:  72;

HAYWARD        CLOUDY    70  68  93 S6        29.93S FOG
6HR MIN TEMP:  68; 6HR MAX TEMP:  73;

SIREN          MOCLDY    69  68  95 CALM      29.92R FOG
CUMBERLAND     FOG       68  66  94 S3        29.94F VSB 1/4
RICE LAKE      FOG       69  67  96 SE5       29.95F VSB<1/4
CHETEK         FOG      N/A N/A N/A SE3       29.95S VSB 1/4
LADYSMITH      FOG       70  69  96 S3        29.98S VSB<1/4
6HR MIN TEMP:  68; 6HR MAX TEMP:  71;

EAU CLAIRE     FOG       68  67  96 CALM      29.94S VSB 3/4
MENOMONIE      FOG       67  67  98 CALM      29.95R VSB<1/4
6HR MIN TEMP:  66; 6HR MAX TEMP:  69;

NEW RICHMOND   PTCLDY    68  67  98 S6        29.94S FOG
OSCEOLA        PTCLDY    69  69 100 S3        29.95R FOG
$$

WIZ003>005-009-010-017-018-011300-
NORTH CENTRAL WISCONSIN

CITY           SKY/WX    TMP DP  RH WIND       PRES   REMARKS
MANITOWISH WTR CLOUDY    70  70 100 SW5       29.98S FOG
ARBOR VITAE    CLOUDY    70  69  96 S3        29.99S FOG
WOODRUFF       CLOUDY    70  69  96 S3        29.99S FOG
RHINELANDER    CLOUDY    69  67  93 SW3       30.01S FOG
6HR MIN TEMP:  68; 6HR MAX TEMP:  69;

EAGLE RIVER    CLOUDY    68  68 100 SW3       30.00R FOG
LAND O LAKES   CLOUDY    68  68  99 CALM      30.01S FOG
PHILLIPS       CLOUDY    69  69 100 S3        29.97S FOG
6HR MIN TEMP:  66; 6HR MAX TEMP:  69;

TOMAHAWK       FOG       65  65  97 CALM      30.00S VSB 1
MEDFORD        FOG       64  64 100 S3        29.99S VSB<1/4
MERRILL        CLOUDY    63  63 100 CALM      30.00S FOG
6HR MIN TEMP:  60; 6HR MAX TEMP:  63;

$$

WIZ029-030-035-036-043>047-011300-
CENTRAL WISCONSIN

CITY           SKY/WX    TMP DP  RH WIND       PRES   REMARKS
WAUSAU         CLEAR     65  64  97 SE3       29.99R FOG
6HR MIN TEMP:  65; 6HR MAX TEMP:  69;

MOSINEE        NOT AVBL
MARSHFIELD     FOG       65  62  90 CALM      29.99S VSB 1/4
6HR MIN TEMP:  65; 6HR MAX TEMP:  67;

STEVENS POINT  PTCLDY    65  65  97 CALM      30.00S FOG
WAUPACA        PTCLDY    66  65  96 CALM      30.00S FOG
WAUTOMA        FOG       63  63 100 CALM      30.01R VSB 1/4
WISC RAPIDS    PTCLDY    66  64  93 S3        30.00S FOG
6HR MIN TEMP:  65; 6HR MAX TEMP:  69;

CAMP DOUGLAS   NOT AVBL
$$

WIZ011>013-019>022-031-037>040-048>050-011300-
NORTHEAST WISCONSIN

CITY           SKY/WX    TMP DP  RH WIND       PRES   REMARKS
ANTIGO         MOCLDY    67  67  98 SW6       30.02R FOG
SHAWANO        FOG       66  65  95 CALM      30.00R VSB 1/4
OCONTO         CLOUDY    60  60 100 CALM      29.99S VSB<1/4
STURGEON BAY   CLEAR     66  64  94 S6        30.03R
6HR MIN TEMP:  64; 6HR MAX TEMP:  66;

GREEN BAY      CLEAR     65  64  97 S3        30.00S
MANITOWOC      NOT AVBL
APPLETON       MOCLDY    64  64 100 SW6       29.99S FOG
CLINTONVILLE   FOG       63  63 100 CALM      30.00R VSB 3/4
OSHKOSH        PTCLDY    69  67  93 S9        30.00S FOG
6HR MIN TEMP:  66; 6HR MAX TEMP:  69;

$$

WIZ032>034-041-042-053>061-011300-
SOUTHWEST WISCONSIN

CITY           SKY/WX    TMP DP  RH WIND       PRES   REMARKS
LA CROSSE      CLEAR     69  68  96 SE6       29.96S FOG
6HR MIN TEMP:  69; 6HR MAX TEMP:  73;

SPARTA         CLEAR     62  61  96 CALM      29.98S
VIROQUA          N/A     68  68 100 CALM      30.01R VSB 1
BOSCOBEL       FOG       65  64  97 CALM      30.00R VSB<1/4
6HR MIN TEMP:  64; 6HR MAX TEMP:  71;

PRAIRIE DU CHI CLEAR     68  66  95 CALM      29.99R FOG
PLATTEVILLE      N/A     69  68  99 S5        30.02R
$$

WIZ056-057-062-063-064-067-068-011300-
SOUTH CENTRAL WISCONSIN

CITY           SKY/WX    TMP DP  RH WIND       PRES   REMARKS
REEDSBURG      CLEAR     69  68  97 S5        30.00R FOG
BARABOO/DELLS  CLEAR     69  66  90 S6        30.00S FOG
LONE ROCK      PTCLDY    66  64  93 E3        30.00S FOG
MINERAL POINT  FOG       70  68  94 S5        30.03R VSB 1/4
MADISON        PTCLDY    70  68  93 S7        30.01S FOG
6HR MIN TEMP:  69; 6HR MAX TEMP:  72;

MIDDLETON      MOCLDY    72  71  95 SW3       30.02S
WATERTOWN      PTCLDY    68  68 100 CALM      30.02S FOG
MONROE         FOG       68  68 100 S7        30.04R VSB 1
JANESVILLE     CLEAR     72  70  94 S3        30.02S FOG
$$

WIZ051-052-058>065-066-070>072-011300-
SOUTHEAST WISCONSIN

CITY           SKY/WX    TMP DP  RH WIND       PRES   REMARKS
MILWAUKEE      PTCLDY    70  67  90 CALM      30.03R FOG
6HR MIN TEMP:  66; 6HR MAX TEMP:  70;

WAUKESHA       NOT AVBL
MILWAUKEE/TIMM PTCLDY    64  61  88 CALM      30.04R FOG
RACINE         CLEAR     70  67  90 S3        30.05R FOG
6HR MIN TEMP:  67; 6HR MAX TEMP:  70;

BURLINGTON     FOG       59  59  99 CALM      30.04R VSB 1/4
KENOSHA        CLEAR     70  68  93 SW5       30.04S FOG
6HR MIN TEMP:  64; 6HR MAX TEMP:  70;

FOND DU LAC    CLEAR     69  67  93 S6        30.01S FOG
6HR MIN TEMP:  66; 6HR MAX TEMP:  69;

SHEBOYGAN      FOG       63  63 100 S5        30.03R VSB 1
6HR MIN TEMP:  60; 6HR MAX TEMP:  64;

WEST BEND      FOG       63  61  94 CALM      30.03S VSB 1
JUNEAU         MOCLDY    65  65  99 SE3       30.04R FOG
$$

LSZ147-162-011300-
LAKE SUPERIOR

STATION/POSITION TIME  TEMP    WIND        PRES    WAVE
                       AIR SEA DIR/SP/G            HT/PER
                 (UTC) (F)     (DEG/KT/KT) (MB)    (FT/S)
W MID LAKE BUOY  1050   60 54  210/ 10/ 12 1011.6R   1/ 3
DEVILS ISLAND    1100   72     220/  6/  7 1011.6R
PORT WING        1100   73     200/  5/  8 1012.2R
SAXON HARBOR     1100   74     190/  3/  7 1012.2
$$

LMZ867-665-643>646-011300-
LAKE MICHIGAN

STATION/POSITION TIME  TEMP    WIND        PRES    WAVE
                       AIR SEA DIR/SP/G            HT/PER
                 (UTC) (F)     (DEG/KT/KT) (MB)    (FT/S)
CHAMBERS ISLAND  1100   67     180/  3/  6 1015.6R
S GREEN BAY BUOY 1100   67 64  180/  6/  8 1016.9R
N MID LAKE BUOY  1050   64 65  200/ 14/ 16 1015.5R   2/ 4
NORTHPORT PIER   1100   64     170/  3/  6 1015.6R
KEWAUNEE LAKESHO 1100   50     170/  1/  2 1015.1R
SHEBOYGAN LAKESH 1100   63     180/  9/  9 1016.5R
PORT WASHINGTON  1100   57      CALM  /  1 1017.3R
ATWATER BUOY     1100   56 51  160/  4/  6 1017.9R
MILWAUKEE LAKESH 1110   58     160/  1/  1   N/A
S MID LAKE BUOY  1050   71 69  180/  8/  8 1016.8R   0
KENOSHA   LAKESH 1100   67     180/  4/  5 1016.6S
$$

TC  - TEMPERATURE IN CELSIUS
VSB - VISIBILITY IN STATUTE MILES
WCI - WIND CHILL INDEX
HX  - HEAT INDEX



USA.gov is the U.S. government's official web portal to all federal, state and local government web resources and services.